Time,TemperatureF,DewpointF,PressureIn,WindDirection,WindDirectionDegrees,WindSpeedMPH,WindSpeedGustMPH,Humidity,HourlyPrecipIn,Conditions,Clouds,dailyrainin,SoftwareType,DateUTC
2013-11-07 00:02:00,32.7,22.3,30.18,NW,315,0.0,0.0,65,0.00,,,0.34,meteohub,2013-11-07 06:02:00,
2013-11-07 00:07:00,32.7,22.3,30.18,NW,315,0.0,0.0,65,0.00,,,0.00,meteohub,2013-11-07 06:07:00,
2013-11-07 00:12:00,32.9,22.5,30.18,West,270,0.0,0.0,65,0.00,,,0.00,meteohub,2013-11-07 06:12:00,
2013-11-07 00:17:00,32.9,22.1,30.18,NW,315,0.0,0.0,64,0.00,,,0.00,meteohub,2013-11-07 06:17:00,
2013-11-07 00:22:00,33.1,22.3,30.17,NW,315,0.0,0.0,64,0.00,,,0.00,meteohub,2013-11-07 06:22:00,
2013-11-07 00:27:00,32.7,21.9,30.18,NW,315,0.0,0.0,64,0.00,,,0.00,meteohub,2013-11-07 06:27:00,
2013-11-07 00:32:00,32.7,21.9,30.18,West,270,0.0,0.0,64,0.00,,,0.00,meteohub,2013-11-07 06:32:00,
2013-11-07 00:37:00,32.4,21.6,30.18,West,270,0.0,0.0,64,0.00,,,0.00,meteohub,2013-11-07 06:37:00,
2013-11-07 00:42:00,32.2,21.7,30.19,West,270,0.0,0.0,65,0.00,,,0.00,meteohub,2013-11-07 06:42:00,
2013-11-07 00:47:00,32.2,22.1,30.19,West,270,0.0,0.0,66,0.00,,,0.00,meteohub,2013-11-07 06:47:00,
2013-11-07 00:52:00,32.2,22.1,30.19,West,270,0.0,0.0,66,0.00,,,0.00,meteohub,2013-11-07 06:52:00,
2013-11-07 00:57:00,32.0,21.9,30.19,NW,315,0.0,0.0,66,0.00,,,0.00,meteohub,2013-11-07 06:57:00,
2013-11-07 01:02:00,31.8,22.1,30.19,WNW,293,0.0,0.0,67,0.00,,,0.00,meteohub,2013-11-07 07:02:00,
2013-11-07 01:07:00,31.8,22.5,30.19,NW,315,0.0,0.0,68,0.00,,,0.00,meteohub,2013-11-07 07:07:00,
2013-11-07 01:12:00,31.5,22.1,30.20,NW,315,0.0,0.0,68,0.00,,,0.00,meteohub,2013-11-07 07:12:00,
2013-11-07 01:17:00,31.5,22.1,30.20,West,270,0.0,0.0,68,0.00,,,0.00,meteohub,2013-11-07 07:17:00,
2013-11-07 01:22:00,31.3,21.9,30.20,West,270,0.0,0.0,68,0.00,,,0.00,meteohub,2013-11-07 07:22:00,
2013-11-07 01:27:00,31.1,22.1,30.19,West,270,0.0,0.0,69,0.00,,,0.00,meteohub,2013-11-07 07:27:00,
2013-11-07 01:32:00,30.9,21.9,30.19,West,270,0.0,0.0,69,0.00,,,0.00,meteohub,2013-11-07 07:32:00,
2013-11-07 01:37:00,30.7,22.1,30.20,NW,315,0.0,0.0,70,0.00,,,0.00,meteohub,2013-11-07 07:37:00,
2013-11-07 01:42:00,30.6,21.9,30.19,West,270,0.0,0.0,70,0.00,,,0.00,meteohub,2013-11-07 07:42:00,
2013-11-07 01:47:00,30.4,21.7,30.20,WNW,293,0.0,0.0,70,0.00,,,0.00,meteohub,2013-11-07 07:47:00,
2013-11-07 01:52:00,30.2,21.9,30.20,West,270,0.0,0.0,71,0.00,,,0.00,meteohub,2013-11-07 07:52:00,
2013-11-07 01:57:00,30.6,22.6,30.19,NW,315,0.0,0.0,72,0.00,,,0.00,meteohub,2013-11-07 07:57:00,
2013-11-07 02:02:00,30.7,22.8,30.19,NW,315,0.0,0.0,72,0.00,,,0.00,meteohub,2013-11-07 08:02:00,
2013-11-07 02:07:00,30.9,23.0,30.19,West,270,0.0,0.0,72,0.00,,,0.00,meteohub,2013-11-07 08:07:00,
2013-11-07 02:12:00,30.9,23.0,30.19,West,270,0.0,0.0,72,0.00,,,0.00,meteohub,2013-11-07 08:12:00,
2013-11-07 02:17:00,30.9,23.0,30.19,SW,225,0.0,0.0,72,0.00,,,0.00,meteohub,2013-11-07 08:17:00,
2013-11-07 02:22:00,30.7,22.8,30.19,SW,225,0.0,0.0,72,0.00,,,0.00,meteohub,2013-11-07 08:22:00,
2013-11-07 02:27:00,30.6,22.3,30.20,West,270,0.0,0.0,71,0.00,,,0.00,meteohub,2013-11-07 08:27:00,
2013-11-07 02:32:00,30.6,22.6,30.20,West,270,0.0,0.0,72,0.00,,,0.00,meteohub,2013-11-07 08:32:00,
2013-11-07 02:37:00,30.2,22.3,30.20,West,270,0.0,0.0,72,0.00,,,0.00,meteohub,2013-11-07 08:37:00,
2013-11-07 02:42:00,30.2,22.3,30.20,NNW,338,0.0,0.0,72,0.00,,,0.00,meteohub,2013-11-07 08:42:00,
2013-11-07 02:47:00,30.4,22.8,30.19,West,270,0.0,0.0,73,0.00,,,0.00,meteohub,2013-11-07 08:47:00,
2013-11-07 02:52:00,30.4,22.8,30.19,West,270,0.0,0.0,73,0.00,,,0.00,meteohub,2013-11-07 08:52:00,
2013-11-07 02:57:00,30.4,22.8,30.19,West,270,0.0,0.0,73,0.00,,,0.00,meteohub,2013-11-07 08:57:00,
2013-11-07 03:02:00,30.2,22.6,30.20,SW,225,0.0,0.0,73,0.00,,,0.00,meteohub,2013-11-07 09:02:00,
2013-11-07 03:07:00,29.8,22.6,30.20,SW,225,0.0,0.0,74,0.00,,,0.00,meteohub,2013-11-07 09:07:00,
2013-11-07 03:12:00,29.5,22.3,30.20,West,270,0.0,0.0,74,0.00,,,0.00,meteohub,2013-11-07 09:12:00,
2013-11-07 03:17:00,29.3,22.1,30.21,SW,225,0.0,0.0,74,0.00,,,0.00,meteohub,2013-11-07 09:17:00,
2013-11-07 03:22:00,28.9,22.1,30.20,West,270,0.0,0.0,75,0.00,,,0.00,meteohub,2013-11-07 09:22:00,
2013-11-07 03:27:00,28.8,21.9,30.21,SW,225,0.0,0.0,75,0.00,,,0.00,meteohub,2013-11-07 09:27:00,
2013-11-07 03:32:00,28.6,21.9,30.21,SW,225,0.0,0.0,76,0.00,,,0.00,meteohub,2013-11-07 09:32:00,
2013-11-07 03:37:00,28.4,22.1,30.21,SW,225,0.0,0.0,77,0.00,,,0.00,meteohub,2013-11-07 09:37:00,
2013-11-07 03:42:00,28.2,20.7,30.21,West,270,0.0,0.0,73,0.00,,,0.00,meteohub,2013-11-07 09:42:00,
2013-11-07 03:47:00,28.2,20.7,30.22,West,270,0.0,0.0,73,0.00,,,0.00,meteohub,2013-11-07 09:47:00,
2013-11-07 03:52:00,28.4,22.5,30.22,SW,225,0.0,0.0,78,0.00,,,0.00,meteohub,2013-11-07 09:52:00,
2013-11-07 03:57:00,28.4,22.5,30.22,SW,225,0.0,0.0,78,0.00,,,0.00,meteohub,2013-11-07 09:57:00,
2013-11-07 04:02:00,28.4,22.5,30.22,SW,225,0.0,0.0,78,0.00,,,0.00,meteohub,2013-11-07 10:02:00,
2013-11-07 04:07:00,28.2,21.0,30.21,SW,225,0.0,0.0,74,0.00,,,0.00,meteohub,2013-11-07 10:07:00,
2013-11-07 04:12:00,28.0,20.8,30.21,South,180,0.0,0.0,74,0.00,,,0.00,meteohub,2013-11-07 10:12:00,
2013-11-07 04:17:00,27.7,20.8,30.21,South,180,0.0,0.0,75,0.00,,,0.00,meteohub,2013-11-07 10:17:00,
2013-11-07 04:22:00,27.5,20.7,30.22,SW,225,0.0,0.0,75,0.00,,,0.00,meteohub,2013-11-07 10:22:00,
2013-11-07 04:27:00,27.3,20.8,30.22,SW,225,0.0,0.0,76,0.00,,,0.00,meteohub,2013-11-07 10:27:00,
2013-11-07 04:32:00,27.1,20.7,30.22,SW,225,0.0,0.0,76,0.00,,,0.00,meteohub,2013-11-07 10:32:00,
2013-11-07 04:37:00,27.1,20.8,30.22,SW,225,0.0,0.0,77,0.00,,,0.00,meteohub,2013-11-07 10:37:00,
2013-11-07 04:42:00,27.0,20.7,30.22,SW,225,0.0,0.0,77,0.00,,,0.00,meteohub,2013-11-07 10:42:00,
2013-11-07 04:47:00,26.8,20.8,30.22,SW,225,0.0,0.0,78,0.00,,,0.00,meteohub,2013-11-07 10:47:00,
2013-11-07 04:52:00,26.8,20.8,30.22,SW,225,0.0,0.0,78,0.00,,,0.00,meteohub,2013-11-07 10:52:00,
2013-11-07 04:57:00,27.0,21.0,30.22,SW,225,0.0,0.0,78,0.00,,,0.00,meteohub,2013-11-07 10:57:00,
2013-11-07 05:02:00,27.0,21.0,30.22,SW,225,0.0,0.0,78,0.00,,,0.00,meteohub,2013-11-07 11:02:00,
2013-11-07 05:07:00,27.0,21.0,30.22,South,180,0.0,0.0,78,0.00,,,0.00,meteohub,2013-11-07 11:07:00,
2013-11-07 05:12:00,27.0,21.4,30.21,SW,225,0.0,0.0,79,0.00,,,0.00,meteohub,2013-11-07 11:12:00,
2013-11-07 05:17:00,27.0,21.4,30.22,NW,315,0.0,0.0,79,0.00,,,0.00,meteohub,2013-11-07 11:17:00,
2013-11-07 05:22:00,26.8,21.2,30.22,NW,315,0.0,0.0,79,0.00,,,0.00,meteohub,2013-11-07 11:22:00,
2013-11-07 05:27:00,26.6,20.7,30.22,NW,315,0.0,0.0,78,0.00,,,0.00,meteohub,2013-11-07 11:27:00,
2013-11-07 05:32:00,26.6,21.0,30.22,West,270,0.0,0.0,79,0.00,,,0.00,meteohub,2013-11-07 11:32:00,
2013-11-07 05:37:00,26.8,21.2,30.22,SW,225,0.0,0.0,79,0.00,,,0.00,meteohub,2013-11-07 11:37:00,
2013-11-07 05:42:00,27.0,21.4,30.23,SW,225,0.0,0.0,79,0.00,,,0.00,meteohub,2013-11-07 11:42:00,
2013-11-07 05:47:00,27.0,21.4,30.23,West,270,0.0,0.0,79,0.00,,,0.00,meteohub,2013-11-07 11:47:00,
2013-11-07 05:52:00,27.1,21.6,30.22,West,270,0.0,0.0,79,0.00,,,0.00,meteohub,2013-11-07 11:52:00,
2013-11-07 05:57:00,27.1,21.6,30.22,WSW,248,0.0,0.0,79,0.00,,,0.00,meteohub,2013-11-07 11:57:00,
2013-11-07 06:02:00,27.0,21.4,30.23,West,270,0.0,0.0,79,0.00,,,0.00,meteohub,2013-11-07 12:02:00,
2013-11-07 06:07:00,27.0,21.4,30.22,West,270,0.0,0.0,79,0.00,,,0.00,meteohub,2013-11-07 12:07:00,
2013-11-07 06:12:00,26.8,21.2,30.22,SW,225,0.0,0.0,79,0.00,,,0.00,meteohub,2013-11-07 12:12:00,
2013-11-07 06:17:00,26.8,21.2,30.22,West,270,0.0,0.0,79,0.00,,,0.00,meteohub,2013-11-07 12:17:00,
2013-11-07 06:22:00,26.8,21.2,30.22,WSW,248,0.0,0.0,79,0.00,,,0.00,meteohub,2013-11-07 12:22:00,
2013-11-07 06:27:00,26.6,21.0,30.22,West,270,0.0,0.0,79,0.00,,,0.00,meteohub,2013-11-07 12:27:00,
2013-11-07 06:32:00,26.6,21.0,30.22,West,270,0.0,0.0,79,0.00,,,0.00,meteohub,2013-11-07 12:32:00,
2013-11-07 06:37:00,26.6,21.0,30.23,West,270,0.0,0.0,79,0.00,,,0.00,meteohub,2013-11-07 12:37:00,
2013-11-07 06:42:00,26.4,21.0,30.23,West,270,0.0,0.0,80,0.00,,,0.00,meteohub,2013-11-07 12:42:00,
2013-11-07 06:47:00,26.4,21.0,30.24,West,270,0.0,0.0,80,0.00,,,0.00,meteohub,2013-11-07 12:47:00,
2013-11-07 06:52:00,26.4,21.0,30.24,West,270,0.0,0.0,80,0.00,,,0.00,meteohub,2013-11-07 12:52:00,
2013-11-07 06:57:00,26.4,21.0,30.24,West,270,0.0,0.0,80,0.00,,,0.00,meteohub,2013-11-07 12:57:00,
2013-11-07 07:02:00,26.2,20.8,30.24,South,180,0.0,0.0,80,0.00,,,0.00,meteohub,2013-11-07 13:02:00,
2013-11-07 07:07:00,26.4,21.0,30.24,West,270,0.0,0.0,80,0.00,,,0.00,meteohub,2013-11-07 13:07:00,
2013-11-07 07:12:00,26.4,21.0,30.24,West,270,0.0,0.0,80,0.00,,,0.00,meteohub,2013-11-07 13:12:00,
2013-11-07 07:17:00,26.8,21.2,30.23,NW,315,0.0,0.0,79,0.00,,,0.00,meteohub,2013-11-07 13:17:00,
2013-11-07 07:22:00,27.0,21.4,30.24,West,270,0.0,0.0,79,0.00,,,0.00,meteohub,2013-11-07 13:22:00,
2013-11-07 07:27:00,27.3,21.9,30.24,West,270,0.0,0.0,80,0.00,,,0.00,meteohub,2013-11-07 13:27:00,
2013-11-07 07:32:00,27.7,22.3,30.24,West,270,0.0,0.0,80,0.00,,,0.00,meteohub,2013-11-07 13:32:00,
2013-11-07 07:37:00,27.9,22.5,30.24,West,270,0.0,0.0,80,0.00,,,0.00,meteohub,2013-11-07 13:37:00,
2013-11-07 07:42:00,28.4,24.3,30.24,West,270,0.0,0.0,84,0.00,,,0.00,meteohub,2013-11-07 13:42:00,
2013-11-07 07:47:00,28.8,24.6,30.24,SW,225,0.0,0.0,84,0.00,,,0.00,meteohub,2013-11-07 13:47:00,
2013-11-07 07:52:00,29.1,25.0,30.24,WNW,293,0.0,0.0,84,0.00,,,0.00,meteohub,2013-11-07 13:52:00,
2013-11-07 07:57:00,29.3,24.8,30.24,West,270,0.0,0.0,83,0.00,,,0.00,meteohub,2013-11-07 13:57:00,
2013-11-07 08:02:00,29.8,25.3,30.23,West,270,0.0,0.0,83,0.00,,,0.00,meteohub,2013-11-07 14:02:00,
2013-11-07 08:07:00,30.7,25.9,30.24,West,270,0.0,0.0,82,0.00,,,0.00,meteohub,2013-11-07 14:07:00,
2013-11-07 08:12:00,31.6,26.4,30.23,West,270,0.0,0.0,81,0.00,,,0.00,meteohub,2013-11-07 14:12:00,
2013-11-07 08:17:00,32.4,26.6,30.23,West,270,0.0,0.0,79,0.00,,,0.00,meteohub,2013-11-07 14:17:00,
2013-11-07 08:22:00,33.3,26.8,30.23,WSW,248,0.0,0.0,77,0.00,,,0.00,meteohub,2013-11-07 14:22:00,
2013-11-07 08:27:00,34.2,26.4,30.22,NW,315,0.0,0.0,73,0.00,,,0.00,meteohub,2013-11-07 14:27:00,
2013-11-07 08:32:00,34.2,25.7,30.22,SW,225,0.0,0.0,71,0.00,,,0.00,meteohub,2013-11-07 14:32:00,
2013-11-07 08:37:00,34.3,25.2,30.22,West,270,0.0,0.0,69,0.00,,,0.00,meteohub,2013-11-07 14:37:00,
2013-11-07 08:42:00,34.2,25.0,30.22,West,270,0.0,0.0,69,0.00,,,0.00,meteohub,2013-11-07 14:42:00,
2013-11-07 08:47:00,34.2,25.0,30.22,SW,225,0.0,0.0,69,0.00,,,0.00,meteohub,2013-11-07 14:47:00,
2013-11-07 08:52:00,34.3,25.2,30.22,SW,225,0.0,0.0,69,0.00,,,0.00,meteohub,2013-11-07 14:52:00,
2013-11-07 08:57:00,35.2,26.1,30.22,West,270,0.0,0.0,69,0.00,,,0.00,meteohub,2013-11-07 14:57:00,
2013-11-07 09:02:00,36.3,26.1,30.22,NW,315,0.0,0.0,66,0.00,,,0.00,meteohub,2013-11-07 15:02:00,
2013-11-07 09:07:00,37.9,29.1,30.22,North,0,0.0,3.0,70,0.59,,,0.59,meteohub,2013-11-07 15:07:00,
2013-11-07 09:12:00,39.0,30.0,30.21,North,0,1.0,3.0,70,0.77,,,0.77,meteohub,2013-11-07 15:12:00,
2013-11-07 09:17:00,39.7,30.4,30.21,SE,135,2.0,7.0,69,0.77,,,0.77,meteohub,2013-11-07 15:17:00,
2013-11-07 09:22:00,38.5,28.0,30.21,SE,135,6.0,7.0,66,0.80,,,0.80,meteohub,2013-11-07 15:22:00,
2013-11-07 09:27:00,37.6,27.3,30.21,WSW,248,3.0,10.0,66,0.80,,,0.80,meteohub,2013-11-07 15:27:00,
2013-11-07 09:32:00,38.1,28.2,30.21,WNW,293,4.0,10.0,67,0.80,,,0.80,meteohub,2013-11-07 15:32:00,
2013-11-07 09:37:00,38.1,27.0,30.20,NW,315,4.0,10.0,64,1.15,,,1.15,meteohub,2013-11-07 15:37:00,
2013-11-07 09:42:00,37.9,26.8,30.21,NW,315,5.0,8.0,64,1.15,,,1.15,meteohub,2013-11-07 15:42:00,
2013-11-07 09:47:00,38.3,27.1,30.21,NNW,338,9.0,9.0,64,1.15,,,1.15,meteohub,2013-11-07 15:47:00,
2013-11-07 09:52:00,38.1,27.0,30.21,West,270,4.0,9.0,64,1.15,,,1.15,meteohub,2013-11-07 15:52:00,
2013-11-07 09:57:00,38.3,27.1,30.21,NW,315,4.0,9.0,64,1.15,,,1.15,meteohub,2013-11-07 15:57:00,
2013-11-07 10:02:00,38.5,27.3,30.21,NW,315,6.0,9.0,64,0.64,,,1.15,meteohub,2013-11-07 16:02:00,
2013-11-07 10:07:00,38.1,26.6,30.22,SW,225,4.0,8.0,63,0.48,,,1.15,meteohub,2013-11-07 16:07:00,
2013-11-07 10:12:00,37.9,26.8,30.22,NW,315,5.0,8.0,64,0.38,,,1.15,meteohub,2013-11-07 16:12:00,
2013-11-07 10:17:00,37.9,27.1,30.22,WNW,293,5.0,8.0,65,0.38,,,1.15,meteohub,2013-11-07 16:17:00,
2013-11-07 10:22:00,37.6,27.0,30.22,West,270,8.0,8.0,65,0.34,,,1.15,meteohub,2013-11-07 16:22:00,
2013-11-07 10:27:00,37.2,25.3,30.22,West,270,4.0,8.0,62,0.34,,,1.15,meteohub,2013-11-07 16:27:00,
2013-11-07 10:32:00,37.4,27.5,30.22,WNW,293,3.0,8.0,67,0.22,,,1.15,meteohub,2013-11-07 16:32:00,
2013-11-07 10:37:00,37.6,27.7,30.22,West,270,5.0,8.0,67,0.00,,,1.15,meteohub,2013-11-07 16:37:00,
2013-11-07 10:42:00,37.6,28.0,30.22,SW,225,2.0,5.0,68,0.00,,,1.15,meteohub,2013-11-07 16:42:00,
2013-11-07 10:47:00,37.9,28.4,30.22,West,270,6.0,6.0,68,0.00,,,1.15,meteohub,2013-11-07 16:47:00,
2013-11-07 10:52:00,37.6,28.0,30.22,WNW,293,4.0,7.0,68,0.00,,,1.15,meteohub,2013-11-07 16:52:00,
2013-11-07 10:57:00,37.6,28.0,30.22,SW,225,2.0,7.0,68,0.00,,,1.15,meteohub,2013-11-07 16:57:00,
2013-11-07 11:02:00,37.6,28.4,30.22,NW,315,3.0,7.0,69,0.00,,,1.15,meteohub,2013-11-07 17:02:00,
2013-11-07 11:07:00,37.6,28.4,30.22,NW,315,5.0,7.0,69,0.00,,,1.15,meteohub,2013-11-07 17:07:00,
2013-11-07 11:12:00,37.8,28.6,30.21,WSW,248,4.0,7.0,69,0.00,,,1.15,meteohub,2013-11-07 17:12:00,
2013-11-07 11:17:00,37.6,28.0,30.22,NW,315,6.0,7.0,68,0.00,,,1.15,meteohub,2013-11-07 17:17:00,
2013-11-07 11:22:00,37.4,27.9,30.22,NW,315,4.0,8.0,68,0.00,,,1.15,meteohub,2013-11-07 17:22:00,
2013-11-07 11:27:00,37.6,28.4,30.22,NNW,338,5.0,8.0,69,0.00,,,1.15,meteohub,2013-11-07 17:27:00,
2013-11-07 11:32:00,37.4,28.2,30.22,South,180,8.0,8.0,69,0.00,,,1.15,meteohub,2013-11-07 17:32:00,
2013-11-07 11:37:00,37.6,28.4,30.21,West,270,10.0,10.0,69,0.00,,,1.15,meteohub,2013-11-07 17:37:00,
2013-11-07 11:42:00,37.4,28.2,30.21,West,270,5.0,11.0,69,0.00,,,1.15,meteohub,2013-11-07 17:42:00,
2013-11-07 11:47:00,37.6,28.8,30.21,NW,315,4.0,11.0,70,0.00,,,1.15,meteohub,2013-11-07 17:47:00,
2013-11-07 11:52:00,37.8,28.9,30.21,NW,315,4.0,11.0,70,0.00,,,1.15,meteohub,2013-11-07 17:52:00,
2013-11-07 11:57:00,37.8,28.9,30.20,NW,315,8.0,8.0,70,0.00,,,1.15,meteohub,2013-11-07 17:57:00,
2013-11-07 12:02:00,38.1,29.1,30.20,West,270,6.0,11.0,70,0.00,,,1.15,meteohub,2013-11-07 18:02:00,
2013-11-07 12:07:00,38.3,28.9,30.19,East,90,7.0,11.0,69,0.00,,,1.15,meteohub,2013-11-07 18:07:00,
2013-11-07 12:12:00,38.8,29.8,30.19,NW,315,6.0,11.0,70,0.00,,,1.15,meteohub,2013-11-07 18:12:00,
2013-11-07 12:17:00,39.0,29.3,30.19,SW,225,8.0,10.0,68,0.00,,,1.15,meteohub,2013-11-07 18:17:00,
2013-11-07 12:22:00,38.8,28.8,30.19,NW,315,11.0,11.0,67,0.00,,,1.15,meteohub,2013-11-07 18:22:00,
2013-11-07 12:27:00,38.7,28.6,30.19,WNW,293,6.0,12.0,67,0.00,,,1.15,meteohub,2013-11-07 18:27:00,
2013-11-07 12:32:00,38.7,28.9,30.20,WNW,293,8.0,12.0,68,0.00,,,1.15,meteohub,2013-11-07 18:32:00,
2013-11-07 12:37:00,38.3,28.8,30.19,NW,315,7.0,11.0,68,0.00,,,1.15,meteohub,2013-11-07 18:37:00,
2013-11-07 12:42:00,38.3,28.8,30.19,North,0,10.0,11.0,68,0.00,,,1.15,meteohub,2013-11-07 18:42:00,
2013-11-07 12:47:00,38.3,28.9,30.19,NW,315,10.0,11.0,69,0.00,,,1.15,meteohub,2013-11-07 18:47:00,
2013-11-07 12:52:00,38.3,28.8,30.19,NW,315,9.0,11.0,68,0.00,,,1.15,meteohub,2013-11-07 18:52:00,
2013-11-07 12:57:00,38.5,28.8,30.18,West,270,7.0,13.0,68,0.00,,,1.15,meteohub,2013-11-07 18:57:00,
2013-11-07 13:02:00,39.6,29.5,30.18,West,270,7.0,13.0,67,0.00,,,1.15,meteohub,2013-11-07 19:02:00,
2013-11-07 13:07:00,40.1,29.7,30.17,NW,315,9.0,13.0,66,0.00,,,1.15,meteohub,2013-11-07 19:07:00,
2013-11-07 13:12:00,40.8,29.7,30.17,West,270,6.0,11.0,64,0.00,,,1.15,meteohub,2013-11-07 19:12:00,
2013-11-07 13:17:00,41.7,29.7,30.17,NW,315,4.0,11.0,62,0.00,,,1.15,meteohub,2013-11-07 19:17:00,
2013-11-07 13:22:00,40.6,28.6,30.17,WNW,293,5.0,11.0,62,0.00,,,1.15,meteohub,2013-11-07 19:22:00,
2013-11-07 13:27:00,41.7,29.3,30.17,NNW,338,5.0,11.0,61,0.00,,,1.15,meteohub,2013-11-07 19:27:00,
2013-11-07 13:32:00,43.0,30.0,30.17,SW,225,4.0,9.0,60,0.00,,,1.15,meteohub,2013-11-07 19:32:00,
2013-11-07 13:37:00,42.4,29.5,30.17,NW,315,5.0,10.0,60,0.00,,,1.15,meteohub,2013-11-07 19:37:00,
2013-11-07 13:42:00,41.2,28.8,30.17,West,270,9.0,10.0,61,0.00,,,1.15,meteohub,2013-11-07 19:42:00,
2013-11-07 13:47:00,41.0,28.9,30.17,West,270,5.0,10.0,62,0.00,,,1.15,meteohub,2013-11-07 19:47:00,
2013-11-07 13:52:00,41.4,29.3,30.17,West,270,7.0,10.0,62,0.00,,,1.15,meteohub,2013-11-07 19:52:00,
2013-11-07 13:57:00,41.5,29.5,30.17,NNW,338,8.0,9.0,62,0.00,,,1.15,meteohub,2013-11-07 19:57:00,
2013-11-07 14:02:00,41.7,29.7,30.17,SW,225,4.0,10.0,62,0.00,,,1.15,meteohub,2013-11-07 20:02:00,
2013-11-07 14:07:00,42.1,29.7,30.17,SW,225,5.0,10.0,61,0.00,,,1.15,meteohub,2013-11-07 20:07:00,
2013-11-07 14:12:00,40.6,28.6,30.17,NW,315,8.0,11.0,62,0.00,,,1.15,meteohub,2013-11-07 20:12:00,
2013-11-07 14:17:00,40.1,28.6,30.17,NNW,338,8.0,11.0,63,0.00,,,1.15,meteohub,2013-11-07 20:17:00,
2013-11-07 14:22:00,39.9,28.4,30.17,NW,315,6.0,10.0,63,0.00,,,1.15,meteohub,2013-11-07 20:22:00,
2013-11-07 14:27:00,39.9,28.4,30.17,NW,315,10.0,10.0,63,0.00,,,1.15,meteohub,2013-11-07 20:27:00,
2013-11-07 14:32:00,39.9,28.4,30.17,NW,315,8.0,10.0,63,0.00,,,1.15,meteohub,2013-11-07 20:32:00,
2013-11-07 14:37:00,41.0,28.9,30.17,NW,315,5.0,10.0,62,0.00,,,1.15,meteohub,2013-11-07 20:37:00,
2013-11-07 14:42:00,41.9,28.9,30.16,NW,315,4.0,10.0,60,0.00,,,1.15,meteohub,2013-11-07 20:42:00,
2013-11-07 14:47:00,42.3,28.0,30.16,NW,315,10.0,10.0,57,0.00,,,1.15,meteohub,2013-11-07 20:47:00,
2013-11-07 14:52:00,41.4,26.8,30.17,East,90,9.0,12.0,56,0.00,,,1.15,meteohub,2013-11-07 20:52:00,
2013-11-07 14:57:00,40.1,27.0,30.17,NW,315,8.0,12.0,59,0.00,,,1.15,meteohub,2013-11-07 20:57:00,
2013-11-07 15:02:00,40.6,28.2,30.16,NW,315,8.0,13.0,61,0.00,,,1.15,meteohub,2013-11-07 21:02:00,
2013-11-07 15:07:00,41.0,27.9,30.17,NW,315,8.0,13.0,59,0.00,,,1.15,meteohub,2013-11-07 21:07:00,
2013-11-07 15:12:00,40.8,28.0,30.17,NW,315,6.0,11.0,60,0.00,,,1.15,meteohub,2013-11-07 21:12:00,
2013-11-07 15:17:00,40.1,27.0,30.17,NW,315,6.0,10.0,59,0.00,,,1.15,meteohub,2013-11-07 21:17:00,
2013-11-07 15:22:00,39.6,26.8,30.17,NW,315,5.0,10.0,60,0.00,,,1.15,meteohub,2013-11-07 21:22:00,
2013-11-07 15:27:00,39.4,26.6,30.18,NW,315,9.0,9.0,60,0.00,,,1.15,meteohub,2013-11-07 21:27:00,
2013-11-07 15:32:00,39.9,26.8,30.17,NW,315,8.0,9.0,59,0.00,,,1.15,meteohub,2013-11-07 21:32:00,
2013-11-07 15:37:00,39.9,26.4,30.17,NW,315,3.0,9.0,58,0.00,,,1.15,meteohub,2013-11-07 21:37:00,
2013-11-07 15:42:00,39.9,26.8,30.17,NW,315,2.0,9.0,59,0.00,,,1.15,meteohub,2013-11-07 21:42:00,
2013-11-07 15:47:00,39.7,27.3,30.17,NW,315,4.0,8.0,61,0.00,,,1.15,meteohub,2013-11-07 21:47:00,
2013-11-07 15:52:00,39.7,27.3,30.17,NW,315,6.0,8.0,61,0.00,,,1.15,meteohub,2013-11-07 21:52:00,
2013-11-07 15:57:00,39.7,27.3,30.18,NW,315,4.0,8.0,61,0.00,,,1.15,meteohub,2013-11-07 21:57:00,
2013-11-07 16:02:00,39.4,27.1,30.17,NW,315,3.0,7.0,61,0.00,,,1.15,meteohub,2013-11-07 22:02:00,
2013-11-07 16:07:00,38.8,27.3,30.18,NW,315,3.0,6.0,63,0.00,,,1.15,meteohub,2013-11-07 22:07:00,
2013-11-07 16:12:00,38.7,27.1,30.18,NW,315,4.0,6.0,63,0.00,,,1.15,meteohub,2013-11-07 22:12:00,
2013-11-07 16:17:00,38.8,27.3,30.18,NW,315,3.0,5.0,63,0.00,,,1.15,meteohub,2013-11-07 22:17:00,
2013-11-07 16:22:00,38.3,27.1,30.18,NW,315,5.0,7.0,64,0.00,,,1.15,meteohub,2013-11-07 22:22:00,
2013-11-07 16:27:00,38.1,27.0,30.18,West,270,4.0,7.0,64,0.00,,,1.15,meteohub,2013-11-07 22:27:00,
2013-11-07 16:32:00,37.8,26.6,30.18,West,270,4.0,7.0,64,0.00,,,1.15,meteohub,2013-11-07 22:32:00,
2013-11-07 16:37:00,37.8,26.6,30.18,WSW,248,2.0,5.0,64,0.00,,,1.15,meteohub,2013-11-07 22:37:00,
2013-11-07 16:42:00,37.4,26.8,30.19,NW,315,4.0,4.0,65,0.00,,,1.15,meteohub,2013-11-07 22:42:00,
2013-11-07 16:47:00,37.2,25.0,30.18,SW,225,2.0,4.0,61,0.00,,,1.15,meteohub,2013-11-07 22:47:00,
2013-11-07 16:52:00,37.0,25.2,30.18,SW,225,2.0,4.0,62,0.00,,,1.15,meteohub,2013-11-07 22:52:00,
2013-11-07 16:57:00,36.9,25.0,30.19,WSW,248,4.0,4.0,62,0.00,,,1.15,meteohub,2013-11-07 22:57:00,
2013-11-07 17:02:00,36.7,25.3,30.19,West,270,2.0,4.0,63,0.00,,,1.15,meteohub,2013-11-07 23:02:00,
2013-11-07 17:07:00,36.5,25.2,30.19,West,270,2.0,4.0,63,0.00,,,1.15,meteohub,2013-11-07 23:07:00,
2013-11-07 17:12:00,36.5,25.5,30.19,SW,225,2.0,4.0,64,0.00,,,1.15,meteohub,2013-11-07 23:12:00,
2013-11-07 17:17:00,36.5,25.9,30.20,West,270,5.0,5.0,65,0.00,,,1.15,meteohub,2013-11-07 23:17:00,
2013-11-07 17:22:00,36.9,26.2,30.20,SW,225,2.0,5.0,65,0.00,,,1.15,meteohub,2013-11-07 23:22:00,
2013-11-07 17:27:00,36.9,26.2,30.19,NW,315,7.0,7.0,65,0.00,,,1.15,meteohub,2013-11-07 23:27:00,
2013-11-07 17:32:00,37.0,26.1,30.20,NW,315,4.0,7.0,64,0.00,,,1.15,meteohub,2013-11-07 23:32:00,
2013-11-07 17:37:00,37.2,26.2,30.20,NW,315,7.0,7.0,64,0.00,,,1.15,meteohub,2013-11-07 23:37:00,
2013-11-07 17:42:00,37.0,26.1,30.20,West,270,6.0,7.0,64,0.00,,,1.15,meteohub,2013-11-07 23:42:00,
2013-11-07 17:47:00,37.0,26.1,30.20,NW,315,2.0,7.0,64,0.00,,,1.15,meteohub,2013-11-07 23:47:00,
2013-11-07 17:52:00,36.9,25.9,30.21,NW,315,6.0,8.0,64,0.00,,,1.15,meteohub,2013-11-07 23:52:00,
2013-11-07 17:57:00,37.0,25.7,30.21,West,270,8.0,8.0,63,0.00,,,1.15,meteohub,2013-11-07 23:57:00,
2013-11-07 18:02:00,37.0,25.7,30.20,West,270,3.0,8.0,63,0.00,,,1.15,meteohub,2013-11-08 00:02:00,
2013-11-07 18:07:00,37.0,25.7,30.20,NW,315,4.0,8.0,63,0.00,,,1.15,meteohub,2013-11-08 00:07:00,
2013-11-07 18:12:00,37.0,25.7,30.20,WNW,293,5.0,9.0,63,0.00,,,1.15,meteohub,2013-11-08 00:12:00,
2013-11-07 18:17:00,37.0,26.1,30.21,West,270,4.0,9.0,64,0.00,,,1.15,meteohub,2013-11-08 00:17:00,
2013-11-07 18:22:00,36.9,25.9,30.20,West,270,4.0,6.0,64,0.00,,,1.15,meteohub,2013-11-08 00:22:00,
2013-11-07 18:27:00,36.9,25.9,30.20,NW,315,4.0,5.0,64,0.00,,,1.15,meteohub,2013-11-08 00:27:00,
2013-11-07 18:32:00,36.9,25.9,30.20,North,0,3.0,6.0,64,0.00,,,1.15,meteohub,2013-11-08 00:32:00,
2013-11-07 18:37:00,36.5,25.9,30.20,West,270,3.0,6.0,65,0.00,,,1.15,meteohub,2013-11-08 00:37:00,
2013-11-07 18:42:00,36.7,26.1,30.21,NW,315,4.0,6.0,65,0.00,,,1.15,meteohub,2013-11-08 00:42:00,
2013-11-07 18:47:00,36.7,26.1,30.21,West,270,3.0,6.0,65,0.00,,,1.15,meteohub,2013-11-08 00:47:00,
2013-11-07 18:52:00,36.7,26.1,30.20,NW,315,4.0,6.0,65,0.00,,,1.15,meteohub,2013-11-08 00:52:00,
2013-11-07 18:57:00,36.7,26.1,30.20,South,180,3.0,5.0,65,0.00,,,1.15,meteohub,2013-11-08 00:57:00,
2013-11-07 19:02:00,36.7,26.4,30.20,NW,315,4.0,5.0,66,0.00,,,1.15,meteohub,2013-11-08 01:02:00,
2013-11-07 19:07:00,36.7,26.1,30.20,NW,315,3.0,5.0,65,0.00,,,1.15,meteohub,2013-11-08 01:07:00,
2013-11-07 19:12:00,36.5,26.2,30.20,NW,315,4.0,5.0,66,0.00,,,1.15,meteohub,2013-11-08 01:12:00,
2013-11-07 19:17:00,36.3,26.1,30.20,West,270,3.0,7.0,66,0.00,,,1.15,meteohub,2013-11-08 01:17:00,
2013-11-07 19:22:00,36.3,26.1,30.20,NW,315,4.0,7.0,66,0.00,,,1.15,meteohub,2013-11-08 01:22:00,
2013-11-07 19:27:00,36.1,25.9,30.20,West,270,2.0,4.0,66,0.00,,,1.15,meteohub,2013-11-08 01:27:00,
2013-11-07 19:32:00,36.1,26.2,30.21,NW,315,4.0,4.0,67,0.00,,,1.15,meteohub,2013-11-08 01:32:00,
2013-11-07 19:37:00,36.3,26.4,30.20,NW,315,3.0,5.0,67,0.00,,,1.15,meteohub,2013-11-08 01:37:00,
2013-11-07 19:42:00,36.3,26.4,30.20,NW,315,5.0,5.0,67,0.00,,,1.15,meteohub,2013-11-08 01:42:00,
2013-11-07 19:47:00,36.3,26.4,30.21,NW,315,7.0,7.0,67,0.00,,,1.15,meteohub,2013-11-08 01:47:00,
2013-11-07 19:52:00,36.3,26.8,30.21,SW,225,3.0,7.0,68,0.00,,,1.15,meteohub,2013-11-08 01:52:00,
2013-11-07 19:57:00,36.0,26.4,30.21,NNW,338,4.0,7.0,68,0.00,,,1.15,meteohub,2013-11-08 01:57:00,
2013-11-07 20:02:00,35.8,26.6,30.21,West,270,3.0,7.0,69,0.00,,,1.15,meteohub,2013-11-08 02:02:00,
2013-11-07 20:07:00,35.8,26.6,30.21,NW,315,4.0,6.0,69,0.00,,,1.15,meteohub,2013-11-08 02:07:00,
2013-11-07 20:12:00,35.6,26.8,30.21,NW,315,2.0,5.0,70,0.00,,,1.15,meteohub,2013-11-08 02:12:00,
2013-11-07 20:17:00,35.6,26.8,30.21,West,270,2.0,5.0,70,0.00,,,1.15,meteohub,2013-11-08 02:17:00,
2013-11-07 20:22:00,35.6,27.1,30.21,NW,315,2.0,5.0,71,0.00,,,1.15,meteohub,2013-11-08 02:22:00,
2013-11-07 20:27:00,35.6,27.1,30.21,West,270,2.0,3.0,71,0.00,,,1.15,meteohub,2013-11-08 02:27:00,
2013-11-07 20:32:00,35.6,27.1,30.21,NW,315,2.0,2.0,71,0.00,,,1.15,meteohub,2013-11-08 02:32:00,
2013-11-07 20:37:00,35.8,27.3,30.21,West,270,3.0,3.0,71,0.00,,,1.15,meteohub,2013-11-08 02:37:00,
2013-11-07 20:42:00,35.8,27.0,30.21,NW,315,2.0,3.0,70,0.00,,,1.15,meteohub,2013-11-08 02:42:00,
2013-11-07 20:47:00,35.8,27.0,30.21,NW,315,2.0,3.0,70,0.00,,,1.15,meteohub,2013-11-08 02:47:00,
2013-11-07 20:52:00,35.8,27.3,30.21,NW,315,2.0,3.0,71,0.00,,,1.15,meteohub,2013-11-08 02:52:00,
2013-11-07 20:57:00,35.8,27.3,30.21,NW,315,3.0,4.0,71,0.00,,,1.15,meteohub,2013-11-08 02:57:00,
2013-11-07 21:02:00,35.8,27.3,30.22,NW,315,6.0,6.0,71,0.00,,,1.15,meteohub,2013-11-08 03:02:00,
2013-11-07 21:07:00,35.6,27.1,30.21,NW,315,2.0,7.0,71,0.00,,,1.15,meteohub,2013-11-08 03:07:00,
2013-11-07 21:12:00,35.4,27.3,30.22,NW,315,4.0,7.0,72,0.00,,,1.15,meteohub,2013-11-08 03:12:00,
2013-11-07 21:17:00,35.2,27.1,30.21,NW,315,4.0,7.0,72,0.00,,,1.15,meteohub,2013-11-08 03:17:00,
2013-11-07 21:22:00,35.2,27.5,30.21,NW,315,3.0,6.0,73,0.00,,,1.15,meteohub,2013-11-08 03:22:00,
2013-11-07 21:27:00,35.2,27.5,30.21,West,270,4.0,4.0,73,0.00,,,1.15,meteohub,2013-11-08 03:27:00,
2013-11-07 21:32:00,35.2,27.5,30.21,NW,315,4.0,4.0,73,0.00,,,1.15,meteohub,2013-11-08 03:32:00,
2013-11-07 21:37:00,35.2,27.1,30.21,NW,315,4.0,4.0,72,0.00,,,1.15,meteohub,2013-11-08 03:37:00,
2013-11-07 21:42:00,35.2,26.8,30.22,WNW,293,4.0,7.0,71,0.00,,,1.15,meteohub,2013-11-08 03:42:00,
2013-11-07 21:47:00,35.2,26.8,30.22,NW,315,3.0,7.0,71,0.00,,,1.15,meteohub,2013-11-08 03:47:00,
2013-11-07 21:52:00,35.1,26.2,30.22,NW,315,4.0,7.0,70,0.00,,,1.15,meteohub,2013-11-08 03:52:00,
2013-11-07 21:57:00,34.9,26.1,30.22,NW,315,3.0,6.0,70,0.00,,,1.15,meteohub,2013-11-08 03:57:00,
2013-11-07 22:02:00,34.9,26.1,30.22,NW,315,4.0,6.0,70,0.00,,,1.15,meteohub,2013-11-08 04:02:00,
2013-11-07 22:07:00,34.7,25.9,30.23,NW,315,6.0,6.0,70,0.00,,,1.15,meteohub,2013-11-08 04:07:00,
2013-11-07 22:12:00,34.5,25.7,30.23,West,270,2.0,6.0,70,0.00,,,1.15,meteohub,2013-11-08 04:12:00,
2013-11-07 22:17:00,34.5,26.1,30.23,NW,315,3.0,6.0,71,0.00,,,1.15,meteohub,2013-11-08 04:17:00,
2013-11-07 22:22:00,34.3,25.9,30.23,NW,315,3.0,6.0,71,0.00,,,1.15,meteohub,2013-11-08 04:22:00,
2013-11-07 22:27:00,34.2,25.7,30.23,NW,315,4.0,6.0,71,0.00,,,1.15,meteohub,2013-11-08 04:27:00,
2013-11-07 22:32:00,34.0,25.5,30.23,NW,315,7.0,7.0,71,0.00,,,1.15,meteohub,2013-11-08 04:32:00,
2013-11-07 22:37:00,34.0,25.5,30.23,West,270,5.0,8.0,71,0.00,,,1.15,meteohub,2013-11-08 04:37:00,
2013-11-07 22:42:00,33.8,25.3,30.23,NW,315,4.0,8.0,71,0.00,,,1.15,meteohub,2013-11-08 04:42:00,
2013-11-07 22:47:00,33.8,25.3,30.23,NW,315,4.0,8.0,71,0.00,,,1.15,meteohub,2013-11-08 04:47:00,
2013-11-07 22:52:00,33.4,25.3,30.23,NW,315,7.0,8.0,72,0.00,,,1.15,meteohub,2013-11-08 04:52:00,
2013-11-07 22:57:00,33.4,25.3,30.23,West,270,4.0,8.0,72,0.00,,,1.15,meteohub,2013-11-08 04:57:00,
2013-11-07 23:02:00,33.3,25.2,30.23,West,270,4.0,8.0,72,0.00,,,1.15,meteohub,2013-11-08 05:02:00,
2013-11-07 23:07:00,33.1,25.0,30.23,West,270,2.0,8.0,72,0.00,,,1.15,meteohub,2013-11-08 05:07:00,
2013-11-07 23:12:00,32.7,24.6,30.24,NW,315,3.0,8.0,72,0.00,,,1.15,meteohub,2013-11-08 05:12:00,
2013-11-07 23:17:00,32.5,24.8,30.24,WNW,293,4.0,7.0,73,0.00,,,1.15,meteohub,2013-11-08 05:17:00,
2013-11-07 23:22:00,32.4,24.6,30.24,NW,315,2.0,6.0,73,0.00,,,1.15,meteohub,2013-11-08 05:22:00,
2013-11-07 23:27:00,32.2,24.4,30.25,West,270,3.0,4.0,73,0.00,,,1.15,meteohub,2013-11-08 05:27:00,
2013-11-07 23:32:00,32.0,24.6,30.25,NW,315,5.0,5.0,74,0.00,,,1.15,meteohub,2013-11-08 05:32:00,
2013-11-07 23:37:00,32.0,24.6,30.25,WNW,293,2.0,5.0,74,0.00,,,1.15,meteohub,2013-11-08 05:37:00,
2013-11-07 23:42:00,31.8,25.2,30.25,North,0,4.0,5.0,76,0.00,,,1.15,meteohub,2013-11-08 05:42:00,
2013-11-07 23:47:00,31.6,25.0,30.25,NW,315,2.0,5.0,76,0.00,,,1.15,meteohub,2013-11-08 05:47:00,
2013-11-07 23:52:00,31.5,24.8,30.25,North,0,4.0,5.0,76,0.00,,,1.15,meteohub,2013-11-08 05:52:00,
2013-11-07 23:57:00,31.5,25.2,30.25,NW,315,2.0,5.0,77,0.00,,,1.15,meteohub,2013-11-08 05:57:00,